This demonstration page uses our WeatherBlox Daily Observations layout. Learn more.

Left ArrowRight Arrow

53.62937, 11.41316

Hourly Observations for May 17, 2019

Temp ( °F °C ) Dew Point ( °F °C ) Humidity (%) Winds ( mph kmh ) Pressure ( in mb ) Visibility ( mi km ) Precip ( " mm )
6:50 am 06:50 Cloudy with Mist and Fog 50 10 48 9 94 94 E 3 6 29.91 1013 1 2 N/A
7:20 am 07:20 Cloudy with Mist and Fog 50 10 50 10 100 100 E 5 7 29.91 1013 2 4 N/A
7:50 am 07:50 Cloudy 50 10 50 10 100 100 ESE 3 6 29.91 1013 5 8 N/A
8:20 am 08:20 Mostly Cloudy 50 10 50 10 100 100 E 5 7 29.91 1013 6 9 N/A
8:50 am 08:50 Mostly Cloudy 52 11 50 10 94 94 E 3 6 29.91 1013 30 48 N/A
9:20 am 09:20 Mostly Cloudy 52 11 48 9 88 88 ESE 5 7 29.91 1013 30 48 N/A
9:50 am 09:50 Mostly Cloudy 52 11 48 9 88 88 ESE 6 9 29.91 1013 30 48 N/A
10:20 am 10:20 Mostly Cloudy 54 12 48 9 82 82 ESE 6 9 29.91 1013 30 48 N/A
10:50 am 10:50 Mostly Cloudy 54 12 48 9 82 82 ESE 6 9 29.91 1013 30 48 N/A
11:20 am 11:20 Mostly Cloudy 55 13 48 9 77 77 ESE 6 9 29.88 1012 30 48 N/A
11:50 am 11:50 Mostly Cloudy 55 13 48 9 77 77 VRB 7 11 29.88 1012 30 48 N/A
12:20 pm 12:20 Mostly Cloudy 57 14 48 9 72 72 E 7 11 29.88 1012 30 48 N/A
12:50 pm 12:50 Mostly Cloudy 59 15 48 9 68 68 E 7 11 29.88 1012 30 48 N/A
1:20 pm 13:20 Mostly Cloudy 59 15 48 9 68 68 VRB 5 7 29.85 1011 30 48 N/A
1:50 pm 13:50 Mostly Cloudy 61 16 50 10 68 68 ENE 5 7 29.85 1011 30 48 N/A
2:20 pm 14:20 Mostly Cloudy 63 17 48 9 59 59 E 7 11 29.85 1011 30 48 N/A
2:50 pm 14:50 Mostly Cloudy 61 16 48 9 63 63 ENE 9 15 29.85 1011 30 48 N/A
3:20 pm 15:20 Mostly Cloudy 61 16 52 11 72 72 NE 10 17 29.83 1010 30 48 N/A
3:50 pm 15:50 Mostly Cloudy 61 16 52 11 72 72 NE 12 19 29.83 1010 30 48 N/A
4:20 pm 16:20 Mostly Cloudy 61 16 52 11 72 72 NE 10 17 29.83 1010 30 48 N/A
4:50 pm 16:50 Mostly Cloudy 61 16 52 11 72 72 NE 13 20 29.83 1010 30 48 N/A
5:20 pm 17:20 Mostly Cloudy 55 13 50 10 82 82 NE 8 13 29.83 1010 30 48 N/A
5:50 pm 17:50 Partly Cloudy 57 14 50 10 77 77 NE 10 17 29.83 1010 30 48 N/A
6:20 pm 18:20 Mostly Cloudy 55 13 50 10 82 82 NE 10 17 29.83 1010 30 48 N/A
6:50 pm 18:50 Mostly Cloudy 55 13 50 10 82 82 NNE 9 15 29.83 1010 30 48 N/A
7:20 pm 19:20 Mostly Sunny 55 13 50 10 82 82 NNE 7 11 29.83 1010 7 11 N/A
7:50 pm 19:50 Mostly Sunny 55 13 50 10 82 82 NE 9 15 29.83 1010 7 11 N/A
8:20 pm 20:20 Mostly Sunny 54 12 50 10 88 88 NNE 8 13 29.83 1010 7 11 N/A
8:50 pm 20:50 Mostly Sunny 52 11 50 10 94 94 NNE 8 13 29.83 1010 7 11 N/A

Powered by AerisWeather